EN

Hourly Weather Ladzin

Today, 25 July, Sunday

Time Temperature Precipitation Wind Pressure Humidity
00:00 +21°C° 0 mm 5 mps 759 mmHg 63%
01:00 +21°C° 0 mm 5 mps 758 mmHg 64%
02:00 +20°C° 0 mm 5 mps 758 mmHg 68%
03:00 +20°C° 0 mm 5 mps 758 mmHg 72%
04:00 +19°C° 0 mm 5 mps 758 mmHg 76%
05:00 +20°C° 0 mm 5 mps 758 mmHg 72%
06:00 +21°C° 0 mm 5 mps 758 mmHg 69%
07:00 +22°C° 0 mm 5 mps 758 mmHg 65%
08:00 +25°C° 0 mm 5 mps 758 mmHg 59%
09:00 +26°C° 0 mm 5 mps 758 mmHg 52%
10:00 +28°C° 0 mm 5 mps 757 mmHg 45%
11:00 +29°C° 0 mm 5 mps 757 mmHg 44%
12:00 +30°C° 0 mm 5 mps 757 mmHg 42%
13:00 +32°C° 0 mm 4 mps 757 mmHg 41%
14:00 +30°C° 0 mm 4 mps 757 mmHg 43%
15:00 +30°C° 0 mm 5 mps 757 mmHg 45%
16:00 +30°C° 0 mm 5 mps 757 mmHg 48%
17:00 +28°C° 0.2 mm 5 mps 756 mmHg 56%
18:00 +26°C° 0.2 mm 5 mps 756 mmHg 65%
19:00 +23°C° 0.2 mm 5 mps 756 mmHg 74%
20:00 +22°C° 0.2 mm 4 mps 757 mmHg 76%
21:00 +22°C° 0.2 mm 4 mps 757 mmHg 78%
22:00 +21°C° 0.2 mm 3 mps 758 mmHg 80%
23:00 +21°C° 0 mm 4 mps 758 mmHg 81%

Tomorrow, 26 July, Monday

Time Temperature Precipitation Wind Pressure Humidity
00:00 +20°C° 0 mm 4 mps 757 mmHg 81%
01:00 +20°C° 0 mm 4 mps 757 mmHg 81%
02:00 +19°C° 0 mm 4 mps 757 mmHg 82%
03:00 +19°C° 0 mm 4 mps 758 mmHg 83%
04:00 +19°C° 0 mm 4 mps 758 mmHg 83%
05:00 +19°C° 0 mm 4 mps 758 mmHg 80%
06:00 +20°C° 0 mm 4 mps 758 mmHg 77%
07:00 +21°C° 0 mm 4 mps 758 mmHg 74%
08:00 +23°C° 0 mm 4 mps 758 mmHg 67%
09:00 +26°C° 0 mm 3 mps 758 mmHg 61%
10:00 +27°C° 0 mm 3 mps 758 mmHg 55%
11:00 +28°C° 0 mm 2 mps 758 mmHg 53%
12:00 +28°C° 0 mm 2 mps 758 mmHg 52%
13:00 +29°C° 0 mm 2 mps 758 mmHg 50%
14:00 +29°C° 0 mm 2 mps 758 mmHg 52%
15:00 +28°C° 0 mm 2 mps 758 mmHg 55%
16:00 +28°C° 0 mm 3 mps 757 mmHg 57%
17:00 +27°C° 0 mm 3 mps 757 mmHg 60%
18:00 +26°C° 0 mm 3 mps 757 mmHg 64%
19:00 +26°C° 0 mm 3 mps 757 mmHg 68%
20:00 +24°C° 0 mm 3 mps 757 mmHg 71%
21:00 +23°C° 0 mm 2 mps 757 mmHg 74%
22:00 +21°C° 0 mm 2 mps 757 mmHg 77%
23:00 +21°C° 0 mm 2 mps 757 mmHg 79%

Day after tomorrow, 27 July, Tuesday

Time Temperature Precipitation Wind Pressure Humidity
00:00 +20°C° 0 mm 2 mps 757 mmHg 81%
01:00 +20°C° 0 mm 2 mps 757 mmHg 82%
02:00 +20°C° 0 mm 2 mps 757 mmHg 83%
03:00 +20°C° 0 mm 2 mps 757 mmHg 84%
04:00 +20°C° 0 mm 2 mps 757 mmHg 85%
05:00 +20°C° 0.1 mm 2 mps 757 mmHg 86%
06:00 +21°C° 0.1 mm 3 mps 757 mmHg 86%
07:00 +21°C° 0.1 mm 3 mps 758 mmHg 87%
08:00 +22°C° 0 mm 3 mps 758 mmHg 79%
09:00 +25°C° 0 mm 4 mps 758 mmHg 71%
10:00 +26°C° 0 mm 4 mps 758 mmHg 63%
11:00 +27°C° 0 mm 4 mps 758 mmHg 58%
12:00 +28°C° 0 mm 3 mps 758 mmHg 53%
13:00 +29°C° 0 mm 3 mps 758 mmHg 49%
14:00 +28°C° 0 mm 3 mps 758 mmHg 50%
15:00 +28°C° 0 mm 3 mps 758 mmHg 52%
16:00 +27°C° 0 mm 3 mps 758 mmHg 54%
17:00 +26°C° 0 mm 2 mps 758 mmHg 59%
18:00 +25°C° 0 mm 2 mps 758 mmHg 64%
19:00 +24°C° 0 mm 1 mps 757 mmHg 70%
20:00 +23°C° 0.2 mm 1 mps 758 mmHg 72%
21:00 +22°C° 0.2 mm 1 mps 758 mmHg 74%
22:00 +21°C° 0.2 mm 2 mps 758 mmHg 77%
23:00 +20°C° 0.5 mm 2 mps 758 mmHg 81%

28 July, Wednesday

Time Temperature Precipitation Wind Pressure Humidity
00:00 +19°C° 0.5 mm 2 mps 758 mmHg 84%
01:00 +18°C° 0.5 mm 3 mps 757 mmHg 88%
02:00 +18°C° 0 mm 3 mps 757 mmHg 90%
03:00 +18°C° 0 mm 4 mps 757 mmHg 91%
04:00 +17°C° 0 mm 4 mps 757 mmHg 93%
05:00 +18°C° 0 mm 4 mps 757 mmHg 87%
06:00 +19°C° 0 mm 5 mps 757 mmHg 82%
07:00 +20°C° 0 mm 5 mps 757 mmHg 76%
08:00 +22°C° 0 mm 4 mps 758 mmHg 69%
09:00 +23°C° 0 mm 4 mps 758 mmHg 61%
10:00 +26°C° 0 mm 4 mps 758 mmHg 53%
11:00 +26°C° 0 mm 4 mps 758 mmHg 53%
12:00 +26°C° 0 mm 4 mps 757 mmHg 54%
13:00 +26°C° 0 mm 4 mps 757 mmHg 54%
14:00 +23°C° 0.2 mm 5 mps 757 mmHg 61%
15:00 +22°C° 0.2 mm 6 mps 758 mmHg 68%
16:00 +21°C° 0.2 mm 7 mps 758 mmHg 75%
17:00 +21°C° 0.3 mm 6 mps 758 mmHg 75%
18:00 +21°C° 0.3 mm 5 mps 758 mmHg 75%
19:00 +21°C° 0.3 mm 4 mps 758 mmHg 75%
20:00 +20°C° 0.1 mm 4 mps 758 mmHg 80%
21:00 +19°C° 0.1 mm 4 mps 758 mmHg 84%
22:00 +18°C° 0.1 mm 4 mps 758 mmHg 89%
23:00 +18°C° 0 mm 3 mps 758 mmHg 90%

29 July, Thursday

Time Temperature Precipitation Wind Pressure Humidity
00:00 +17°C° 0 mm 3 mps 758 mmHg 92%
01:00 +17°C° 0 mm 3 mps 758 mmHg 93%
02:00 +17°C° 0 mm 3 mps 758 mmHg 93%
03:00 +16°C° 0 mm 3 mps 758 mmHg 94%
04:00 +16°C° 0 mm 3 mps 758 mmHg 94%
05:00 +17°C° 0 mm 4 mps 758 mmHg 88%
06:00 +19°C° 0 mm 4 mps 758 mmHg 82%
07:00 +20°C° 0 mm 4 mps 758 mmHg 77%
08:00 +22°C° 0 mm 5 mps 757 mmHg 69%
09:00 +25°C° 0 mm 5 mps 757 mmHg 62%
10:00 +26°C° 0 mm 6 mps 757 mmHg 55%
11:00 +27°C° 0 mm 6 mps 757 mmHg 50%
12:00 +28°C° 0 mm 6 mps 756 mmHg 46%
13:00 +28°C° 0 mm 6 mps 756 mmHg 41%
14:00 +28°C° 0 mm 6 mps 756 mmHg 42%
15:00 +28°C° 0 mm 5 mps 756 mmHg 43%
16:00 +28°C° 0 mm 4 mps 756 mmHg 44%
17:00 +26°C° 0 mm 4 mps 756 mmHg 52%
18:00 +23°C° 0 mm 4 mps 757 mmHg 61%
19:00 +22°C° 0 mm 4 mps 757 mmHg 69%
20:00 +20°C° 0 mm 4 mps 757 mmHg 74%
21:00 +19°C° 0 mm 3 mps 758 mmHg 78%
22:00 +18°C° 0 mm 3 mps 758 mmHg 83%
23:00 +18°C° 0 mm 3 mps 758 mmHg 84%

30 July, Friday

Time Temperature Precipitation Wind Pressure Humidity
00:00 +17°C° 0 mm 3 mps 758 mmHg 84%
01:00 +17°C° 0 mm 4 mps 758 mmHg 85%
02:00 +15°C° 0 mm 4 mps 758 mmHg 84%
03:00 +15°C° 0 mm 4 mps 758 mmHg 83%
04:00 +14°C° 0 mm 5 mps 758 mmHg 82%
05:00 +16°C° 0 mm 5 mps 758 mmHg 76%
06:00 +17°C° 0 mm 5 mps 758 mmHg 69%
07:00 +19°C° 0 mm 5 mps 758 mmHg 63%
08:00 +20°C° 0 mm 6 mps 758 mmHg 57%
09:00 +22°C° 0 mm 6 mps 758 mmHg 51%
10:00 +23°C° 0 mm 6 mps 758 mmHg 46%
11:00 +24°C° 0 mm 6 mps 758 mmHg 42%
12:00 +24°C° 0 mm 6 mps 757 mmHg 39%
13:00 +26°C° 0 mm 7 mps 757 mmHg 36%
14:00 +26°C° 0 mm 6 mps 757 mmHg 36%
15:00 +26°C° 0 mm 6 mps 757 mmHg 36%
16:00 +24°C° 0 mm 6 mps 757 mmHg 36%
17:00 +23°C° 0 mm 6 mps 757 mmHg 41%
18:00 +22°C° 0 mm 6 mps 757 mmHg 45%
19:00 +21°C° 0 mm 6 mps 757 mmHg 50%
20:00 +20°C° 0 mm 5 mps 757 mmHg 55%
21:00 +17°C° 0 mm 5 mps 757 mmHg 60%
22:00 +17°C° 0 mm 4 mps 757 mmHg 66%
23:00 +16°C° 0 mm 5 mps 757 mmHg 69%
Show more